Location: *
(51.0333°S, 178.4667°E)
Time: 16:57:39
(UTC+00:00)

STARLINK-34 - Pass Details

Date: 15 November 2019
Orbit: 528 x 531 km, 53.0° (Epoch: 10 December)

Event Time Altitude Azimuth Distance (km) Brightness Sun altitude
Rises 09:21:59 0° 267° (W) 2,688 7.7 -13.3°
Reaches altitude 10° 09:24:13 10° 263° (W) 1,798 6.9 -13.5°
Maximum altitude 09:28:17 65° 181° (S) 598 4.0 -13.8°
Drops below altitude 10° 09:32:21 10° 98° (E) 1,801 6.0 -14.2°
Enters shadow 09:33:33 - 95° (E) 2,274 6.5 -14.3°
